INTELSAT 40E (IS-40E)

Last updated on Thu Jul 03 2025 00:02:49 GMT+0000 (Coordinated Universal Time)

1 56174U 23052A 25183.54855041 -.00000167 00000+0 00000+0 0 9999 2 56174 0.0171 59.0927 0001900 69.1066 259.0855 1.00272852 8317
UTC large
Height (km)
Speed (km/s)
/
Latitude / Longitude
Inclination (degrees)
Orbital Period (minutes)
Azimuth
Elevation
Range (km)
Doppler Factor

Next 0 passes for location: London (51.5072 / 0.1276)

Sorry there are no passes over London.